Weather History for KNUQ - March, 2013

Change the Weather History Date:

Saturday, March 30, 2013

  Actual Average Record
Temperature  
Mean Temperature 63 °F 57 °F  
Max Temperature 69 °F 66 °F 79 °F (2011)
Min Temperature 56 °F 48 °F 39 °F (1998)
Degree Days  
Heating Degree Days 2    
Month to date heating degree days 232  
Since 1 July heating degree days 1909  
Cooling Degree Days 0    
Month to date cooling degree days 1  
Year to date cooling degree days 1  
Growing Degree Days 12 (Base 50)    
Moisture  
Dew Point 53 °F    
Average Humidity 75    
Maximum Humidity 93    
Minimum Humidity 57    
Precipitation  
Precipitation 0.03 in 0.06 in 0.71 in (1967)
Month to date precipitation 0.73 2.21  
Year to date precipitation 1.45 8.03  
Since 1 July precipitation 9.22  
Sea Level Pressure  
Sea Level Pressure 30.06 in    
Wind  
Wind Speed 4 mph (North)    
Max Wind Speed 14 mph    
Max Gust Speed 16 mph    
Visibility 10 miles    
Events Rain    
T = Trace of Precipitation, MM = Missing Value Source: NWS Daily Summary

Daily Weather History Graph

Daily Weather History Graph

Search for Another Location

Airport or City:

Trip Planner

Search our weather history database for the weather conditions in past years. The results will help you decide how hot, cold, wet, or windy it might be!

Date:

Astronomy

Mar. 30, 2013 Rise Set
Actual Time 6:56 AM PDT 7:29 PM PDT
Civil Twilight 6:29 AM PDT 7:55 PM PDT
Nautical Twilight 5:59 AM PDT 8:26 PM PDT
Astronomical Twilight 5:27 AM PDT 8:58 PM PDT
Moon 11:36 PM PDT (3/30) 9:00 AM PDT (3/30)
Length of Visible Light 13h 25m
Length of Day
12h 33m
Waning Gibbous, 85% of the Moon is Illuminated
Mar 30
Waning Gibbous
Apr 2
Last Quarter
Apr 10
New
Apr 18
First Quarter
Apr 25
Full

Hourly Weather History & Observations

Time (PDT) Temp. Dew Point Humidity Pressure Visibility Wind Dir Wind Speed Gust Speed Precip Events Conditions
12:56 AM 57.9 °F 53.1 °F 84% 30.08 in 10.0 mi NNE 4.6 mph - N/A   Partly Cloudy
1:56 AM 57.9 °F 53.1 °F 84% 30.08 in 10.0 mi Calm Calm - N/A   Clear
2:56 AM 57.9 °F 52.0 °F 81% 30.07 in 10.0 mi WNW 3.5 mph - N/A   Partly Cloudy
3:56 AM 55.9 °F 52.0 °F 87% 30.06 in 10.0 mi NNW 4.6 mph - N/A   Clear
4:12 AM 55.4 °F 51.8 °F 88% 30.05 in 10.0 mi North 3.5 mph - N/A   Scattered Clouds
4:21 AM 55.4 °F 51.8 °F 88% 30.05 in 10.0 mi North 3.5 mph - N/A   Mostly Cloudy
4:56 AM 55.9 °F 53.1 °F 90% 30.05 in 10.0 mi NNW 3.5 mph - N/A   Scattered Clouds
5:09 AM 55.4 °F 53.6 °F 94% 30.04 in 10.0 mi Calm Calm - N/A   Mostly Cloudy
5:56 AM 55.9 °F 53.1 °F 90% 30.05 in 10.0 mi Calm Calm - N/A   Overcast
6:45 AM 55.4 °F 53.6 °F 94% 30.05 in 10.0 mi Calm Calm - N/A   Scattered Clouds
6:56 AM 55.9 °F 53.1 °F 90% 30.06 in 10.0 mi Calm Calm - N/A   Partly Cloudy
7:10 AM 57.2 °F 53.6 °F 88% 30.06 in 10.0 mi Calm Calm - N/A   Mostly Cloudy
7:56 AM 57.0 °F 53.1 °F 87% 30.08 in 10.0 mi Calm Calm - N/A   Overcast
8:13 AM 57.2 °F 53.6 °F 88% 30.07 in 8.0 mi North 4.6 mph - N/A   Overcast
8:56 AM 57.9 °F 53.1 °F 84% 30.09 in 9.0 mi North 8.1 mph - N/A   Overcast
9:12 AM 57.2 °F 53.6 °F 88% 30.08 in 9.0 mi NNW 4.6 mph - N/A   Overcast
9:25 AM 57.2 °F 53.6 °F 88% 30.08 in 8.0 mi North 6.9 mph - N/A   Overcast
9:38 AM 57.2 °F 53.6 °F 88% 30.09 in 10.0 mi North 5.8 mph - N/A   Overcast
9:56 AM 57.9 °F 53.1 °F 84% 30.09 in 10.0 mi North 6.9 mph - N/A   Overcast
10:16 AM 59.0 °F 53.6 °F 82% 30.08 in 10.0 mi North 4.6 mph - N/A   Overcast
10:22 AM 60.8 °F 53.6 °F 77% 30.08 in 10.0 mi NNE 5.8 mph - N/A   Overcast
10:29 AM 60.8 °F 53.6 °F 77% 30.08 in 10.0 mi NNW 4.6 mph - N/A   Mostly Cloudy
10:56 AM 59.0 °F 54.0 °F 83% 30.09 in 10.0 mi NNW 3.5 mph - N/A   Overcast
11:10 AM 60.8 °F 53.6 °F 77% 30.08 in 10.0 mi NNW 4.6 mph - N/A   Overcast
11:25 AM 62.6 °F 53.6 °F 72% 30.08 in 10.0 mi North 4.6 mph - N/A   Mostly Cloudy
11:56 AM 64.0 °F 53.1 °F 67% 30.08 in 10.0 mi Calm Calm - N/A   Clear
12:56 PM 64.9 °F 54.0 °F 68% 30.07 in 10.0 mi North 10.4 mph - N/A   Scattered Clouds
1:56 PM 66.9 °F 53.1 °F 61% 30.05 in 10.0 mi North 6.9 mph - N/A   Clear
2:56 PM 69.1 °F 53.1 °F 57% 30.03 in 10.0 mi NNW 9.2 mph - N/A   Clear
3:56 PM 66.0 °F 52.0 °F 60% 30.02 in 10.0 mi North 12.7 mph - N/A   Clear
4:56 PM 64.9 °F 54.0 °F 68% 30.01 in 10.0 mi NNW 4.6 mph - N/A   Scattered Clouds
5:56 PM 66.0 °F 53.1 °F 63% 29.99 in 10.0 mi North 6.9 mph - 0.00 in Rain Light Rain
6:56 PM 63.0 °F 54.0 °F 72% 30.01 in 10.0 mi ENE 3.5 mph - 0.01 in   Overcast
7:56 PM 63.0 °F 50.0 °F 63% 30.02 in 10.0 mi Calm Calm - N/A   Partly Cloudy
8:56 PM 62.1 °F 51.1 °F 67% 30.03 in 10.0 mi SE 3.5 mph - N/A   Overcast
9:56 PM 62.1 °F 51.1 °F 67% 30.03 in 10.0 mi Calm Calm - N/A   Overcast
10:56 PM 62.1 °F 52.0 °F 70% 30.04 in 10.0 mi Variable 4.6 mph - 0.00 in Rain Light Rain
11:56 PM 60.1 °F 55.0 °F 83% 30.05 in 10.0 mi Calm Calm - 0.00 in Rain Light Rain